Bangkok (Don Mueang), Thailand

11:42 PM +07 on January 16, 2018 (GMT +0700)
Bangkok International

Weather History for VTBD - September, 2012

Change the Weather History Date:

Monday, September 3, 2012

  Actual Average Record
Temperature  
Mean Temperature 84 °F -  
Max Temperature 91 °F 90 °F 98 °F (1996)
Min Temperature 77 °F 76 °F 73 °F (2000)
Cooling Degree Days 19    
Growing Degree Days 34 (Base 50)    
Moisture  
Dew Point 72 °F    
Average Humidity 68    
Maximum Humidity 94    
Minimum Humidity 46    
Precipitation  
Precipitation 0.00 in 0.34 in - ()
Sea Level Pressure  
Sea Level Pressure 29.73 in    
Wind  
Wind Speed 5 mph ()    
Max Wind Speed 10 mph    
Max Gust Speed -    
Visibility 6.2 miles    
Events Rain    
Averages and records for this station are not official NWS values.
T = Trace of Precipitation, MM = Missing Value Source: Averaged Metar Reports

Daily Weather History Graph

Daily Weather History Graph

Search for Another Location

Airport or City:

Trip Planner

Search our weather history database for the weather conditions in past years. The results will help you decide how hot, cold, wet, or windy it might be!

Date:

Astronomy

Sep. 03, 2012 Rise Set
Actual Time 6:06 AM +07 6:27 PM +07
Civil Twilight 5:44 AM +07 6:49 PM +07
Nautical Twilight 5:19 AM +07 7:14 PM +07
Astronomical Twilight 4:54 AM +07 7:39 PM +07
Moon 8:11 PM +07 (9/3) 8:05 AM +07 (9/3)
Length of Visible Light 13h 04m
Length of Day
12h 21m
Waning Gibbous, 93% of the Moon is Illuminated
Sep 3
Waning Gibbous
Sep 8
Last Quarter
Sep 16
New
Sep 23
First Quarter
Sep 30
Full

Hourly Weather History & Observations

Time (+07) Temp. Heat Index Dew Point Humidity Pressure Visibility Wind Dir Wind Speed Gust Speed Precip Events Conditions
12:00 AM 82.4 °F 88.2 °F 73.4 °F 74% 29.74 in 6.2 mi NW 4.6 mph - N/A   Mostly Cloudy
12:30 AM 80.6 °F 85.4 °F 73.4 °F 79% 29.74 in 6.2 mi WNW 8.1 mph - N/A   Mostly Cloudy
1:00 AM 80 °F - 72 °F 71% 29.74 in 6 mi West 3.5 mph - -   Scattered Clouds
1:00 AM 80.6 °F 84.6 °F 71.6 °F 74% 29.71 in 6.2 mi West 3.5 mph - N/A   Mostly Cloudy
1:30 AM 80.6 °F 84.6 °F 71.6 °F 74% 29.71 in 6.2 mi WNW 4.6 mph - N/A   Mostly Cloudy
2:00 AM 78.8 °F - 71.6 °F 78% 29.71 in 6.2 mi West 3.5 mph - N/A   Mostly Cloudy
2:30 AM 78.8 °F - 71.6 °F 78% 29.71 in 6.2 mi WNW 3.5 mph - N/A   Mostly Cloudy
3:00 AM 78.8 °F - 73.4 °F 83% 29.71 in 6.2 mi Calm Calm - N/A   Mostly Cloudy
3:30 AM 78.8 °F - 73.4 °F 83% 29.71 in 6.2 mi West 2.3 mph - N/A   Mostly Cloudy
4:00 AM 78.8 °F - 75.2 °F 89% 29.71 in 6.2 mi West 2.3 mph - N/A Rain Light Rain
4:30 AM 78.8 °F - 75.2 °F 89% 29.71 in 5.6 mi SW 5.8 mph - N/A Rain Light Rain
5:00 AM 78.8 °F - 75.2 °F 89% 29.71 in 6.2 mi SSW 4.6 mph - N/A Rain Light Rain
5:30 AM 78.8 °F - 77.0 °F 94% 29.74 in 6.2 mi SW 8.1 mph - N/A   Mostly Cloudy
6:00 AM 78.8 °F - 73.4 °F 83% 29.74 in 6.2 mi SW 4.6 mph - N/A   Mostly Cloudy
6:30 AM 77.0 °F - 73.4 °F 89% 29.74 in 6.2 mi SW 4.6 mph - N/A   Mostly Cloudy
7:00 AM 78 °F - 74 °F 82% 29.75 in 6 mi West 1.2 mph - -   Partly Cloudy
7:00 AM 78.8 °F - 73.4 °F 83% 29.74 in 6.2 mi West 1.2 mph - N/A   Mostly Cloudy
7:30 AM 78.8 °F - 73.4 °F 83% 29.74 in 6.2 mi WSW 1.2 mph - N/A   Mostly Cloudy
8:00 AM 78.8 °F - 73.4 °F 83% 29.74 in 6.2 mi WSW 2.3 mph - N/A   Mostly Cloudy
8:30 AM 80.6 °F 85.4 °F 73.4 °F 79% 29.77 in 6.2 mi WSW 3.5 mph - N/A   Mostly Cloudy
9:00 AM 84.2 °F 88.4 °F 69.8 °F 62% 29.77 in 6.2 mi WSW 4.6 mph - N/A   Mostly Cloudy
9:30 AM 84.2 °F 89.6 °F 71.6 °F 66% 29.77 in 6.2 mi WSW 5.8 mph - N/A   Mostly Cloudy
10:00 AM 84.2 °F 89.6 °F 71.6 °F 66% 29.77 in 6.2 mi WSW 8.1 mph - N/A   Mostly Cloudy
10:30 AM 84.2 °F 89.6 °F 71.6 °F 66% 29.77 in 6.2 mi WSW 6.9 mph - N/A   Mostly Cloudy
11:00 AM 86.0 °F 90.4 °F 69.8 °F 58% 29.77 in 6.2 mi West 8.1 mph - N/A   Mostly Cloudy
12:00 PM 86.0 °F 91.8 °F 71.6 °F 62% 29.74 in 6.2 mi West 4.6 mph - N/A   Mostly Cloudy
12:30 PM 86.0 °F 91.8 °F 71.6 °F 62% 29.74 in 6.2 mi West 8.1 mph - N/A   Mostly Cloudy
1:00 PM 89 °F - 71 °F 46% 29.73 in 6 mi West 6.9 mph - -   Scattered Clouds
1:00 PM 89.6 °F 96.2 °F 71.6 °F 55% 29.71 in 6.2 mi West 6.9 mph - N/A   Mostly Cloudy
1:30 PM 89.6 °F 94.7 °F 69.8 °F 52% 29.71 in 6.2 mi West 10.4 mph - N/A   Mostly Cloudy
2:00 PM 91.4 °F 96.8 °F 69.8 °F 49% 29.71 in 6.2 mi West 8.1 mph - N/A   Mostly Cloudy
2:30 PM 91.4 °F 96.8 °F 69.8 °F 49% 29.68 in 6.2 mi West 8.1 mph - N/A   Mostly Cloudy
3:00 PM 91.4 °F 96.8 °F 69.8 °F 49% 29.68 in 6.2 mi West 9.2 mph - N/A   Mostly Cloudy
3:30 PM 91.4 °F 96.8 °F 69.8 °F 49% 29.68 in 6.2 mi West 6.9 mph - N/A   Mostly Cloudy
4:00 PM 91.4 °F 96.8 °F 69.8 °F 49% 29.65 in 6.2 mi West 8.1 mph - N/A   Mostly Cloudy
4:30 PM 91.4 °F 96.8 °F 69.8 °F 49% 29.68 in 6.2 mi West 10.4 mph - N/A   Mostly Cloudy
5:00 PM 86.0 °F 91.8 °F 71.6 °F 62% 29.68 in 6.2 mi West 8.1 mph - N/A   Mostly Cloudy
5:30 PM 84.2 °F 88.4 °F 69.8 °F 62% 29.68 in 6.2 mi WSW 8.1 mph - N/A   Mostly Cloudy
6:00 PM 84.2 °F 88.4 °F 69.8 °F 62% 29.68 in 6.2 mi WSW 8.1 mph - N/A   Mostly Cloudy
6:30 PM 86.0 °F 90.4 °F 69.8 °F 58% 29.71 in 6.2 mi WSW 6.9 mph - N/A   Mostly Cloudy
7:00 PM 85 °F - 69 °F 50% 29.74 in 6 mi WSW 5.8 mph - -   Scattered Clouds
7:00 PM 84.2 °F 88.4 °F 69.8 °F 62% 29.71 in 6.2 mi WSW 5.8 mph - N/A   Mostly Cloudy
7:30 PM 84.2 °F 88.4 °F 69.8 °F 62% 29.74 in 6.2 mi West 6.9 mph - N/A   Mostly Cloudy
8:00 PM 82.4 °F 86.3 °F 69.8 °F 66% 29.74 in 6.2 mi West 6.9 mph - N/A   Mostly Cloudy
8:30 PM 82.4 °F 86.3 °F 69.8 °F 66% 29.74 in 6.2 mi West 5.8 mph - N/A   Mostly Cloudy
9:00 PM 82.4 °F 86.3 °F 69.8 °F 66% 29.77 in 6.2 mi West 4.6 mph - N/A   Mostly Cloudy
9:30 PM 82.4 °F 86.3 °F 69.8 °F 66% 29.77 in 6.2 mi West 6.9 mph - N/A   Mostly Cloudy
10:00 PM 82.4 °F 86.3 °F 69.8 °F 66% 29.77 in 6.2 mi West 4.6 mph - N/A   Mostly Cloudy
10:30 PM 82.4 °F 87.2 °F 71.6 °F 70% 29.77 in 6.2 mi West 6.9 mph - N/A   Mostly Cloudy
11:00 PM 82.4 °F 87.2 °F 71.6 °F 70% 29.77 in 6.2 mi West 5.8 mph - N/A   Mostly Cloudy
11:30 PM 82.4 °F 87.2 °F 71.6 °F 70% 29.77 in 6.2 mi West 5.8 mph - N/A   Mostly Cloudy